Torna al catalogo

STARLINK-35381

AttivoComunicazioniVLEO
NORAD 65826·PAYLOAD·🇺🇸 United States

Lanciato Sep 29, 2025 da Vandenberg Space Force Base

Loading…

Prossimi Passaggi (prossime 24 ore)

TLE

AggiornatoSource: CelesTrak SupGP

Epoca: Sep 14, 2026, 21:17 UTC

1 65826C 25221D   26257.88729167  .00036129  00000+0  10669-2 0  2570
2 65826  53.1573 285.8896 0001361  93.9503 204.3532 15.34387556    16

Traccia STARLINK-35381 in tempo reale con AllMySat

Download on the App Store